Indianapolis, IN

11:09 PM EDT on September 19, 2019 (GMT -0400)
Indianapolis Terry

Weather History for KTYQ - May, 2019

Change the Weather History Date:

Saturday, May 25, 2019

  Actual Average (WUND) Record (WUND)
Temperature  
Mean Temperature 73 °F -  
Max Temperature 81 °F - - (-1)
Min Temperature 65 °F - - (-1)
Cooling Degree Days 8    
Growing Degree Days 23 (Base 50)    
Moisture  
Dew Point 68 °F    
Average Humidity 80    
Maximum Humidity 100    
Minimum Humidity 59    
Precipitation  
Precipitation 0.27 in - - ()
Sea Level Pressure  
Sea Level Pressure 30.02 in    
Wind  
Wind Speed 9 mph ()    
Max Wind Speed 22 mph    
Max Gust Speed 28 mph    
Visibility 9.9 miles    
Events Rain , Thunderstorm    
Averages and records for this station are not official NWS values.
T = Trace of Precipitation, MM = Missing Value Source: Averaged Metar Reports

Daily Weather History Graph

Daily Weather History Graph

Search for Another Location

Airport or City:

Astronomy

May. 25, 2019 Rise Set
Actual Time 6:22 AM EDT 9:02 PM EDT
Civil Twilight 5:50 AM EDT 9:33 PM EDT
Nautical Twilight 5:11 AM EDT 10:13 PM EDT
Astronomical Twilight 4:26 AM EDT 10:58 PM EDT
Moon 2:02 AM EDT (5/25) 12:20 PM EDT (5/25)
Length of Visible Light 15h 43m
Length of Day
14h 40m
Waning Gibbous, 60% of the Moon is Illuminated
May 25
Waning Gibbous
May 26
Last Quarter
Jun 3
New
Jun 10
First Quarter
Jun 17
Full

Hourly Weather History & Observations

Time (EDT) Temp. Heat Index Dew Point Humidity Pressure Visibility Wind Dir Wind Speed Gust Speed Precip Events Conditions
12:15 AM 65.8 °F - 65.8 °F 100% 30.03 in 10.0 mi South 5.8 mph - N/A   Clear
12:35 AM 68.7 °F - 66.7 °F 93% 30.03 in 10.0 mi South 5.8 mph - N/A   Clear
12:55 AM 68.4 °F - 66.7 °F 95% 30.03 in 10.0 mi SSW 4.6 mph - N/A   Clear
1:15 AM 68.4 °F - 67.1 °F 96% 30.03 in 10.0 mi SSW 6.9 mph - N/A   Clear
1:35 AM 70.3 °F - 67.3 °F 90% 30.03 in 10.0 mi SSW 8.1 mph - N/A   Clear
1:55 AM 70.9 °F - 67.3 °F 88% 30.03 in 10.0 mi SSW 8.1 mph - N/A   Clear
2:15 AM 71.1 °F - 67.3 °F 88% 30.03 in 10.0 mi SSW 9.2 mph - N/A   Clear
2:35 AM 71.4 °F - 67.1 °F 86% 30.03 in 10.0 mi SSW 9.2 mph - N/A   Clear
2:55 AM 71.6 °F - 66.7 °F 85% 30.02 in 10.0 mi SSW 9.2 mph - N/A   Clear
3:15 AM 71.2 °F - 66.6 °F 85% 30.02 in 10.0 mi SSW 9.2 mph - N/A   Clear
3:35 AM 70.9 °F - 66.4 °F 86% 30.01 in 10.0 mi SSW 11.5 mph 16.1 mph N/A   Clear
3:55 AM 70.7 °F - 66.2 °F 86% 30.01 in 10.0 mi SSW 8.1 mph - N/A   Clear
4:15 AM 71.1 °F - 65.8 °F 84% 30.00 in 10.0 mi SSW 9.2 mph - N/A   Clear
4:35 AM 70.5 °F - 66.2 °F 86% 29.99 in 10.0 mi SSW 9.2 mph - N/A   Clear
4:55 AM 70.7 °F - 65.8 °F 85% 29.99 in 10.0 mi SSW 9.2 mph - N/A   Clear
5:15 AM 70.2 °F - 66.0 °F 87% 29.99 in 10.0 mi SSW 10.4 mph - N/A   Clear
5:35 AM 69.6 °F - 66.2 °F 89% 29.99 in 10.0 mi SSW 10.4 mph - N/A   Clear
5:55 AM 70.2 °F - 66.4 °F 88% 29.99 in 10.0 mi SSW 9.2 mph - N/A   Clear
6:15 AM 70.7 °F - 66.2 °F 86% 29.99 in 10.0 mi SW 10.4 mph - N/A   Clear
6:35 AM 70.0 °F - 66.2 °F 88% 30.00 in 10.0 mi SSW 9.2 mph - N/A   Clear
6:55 AM 70.3 °F - 66.6 °F 88% 30.00 in 10.0 mi SW 8.1 mph - N/A   Scattered Clouds
7:15 AM 70.7 °F - 66.7 °F 87% 30.01 in 10.0 mi SW 10.4 mph - N/A   Scattered Clouds
7:35 AM 71.6 °F - 66.9 °F 85% 30.03 in 10.0 mi SW 10.4 mph - N/A   Clear
7:55 AM 72.3 °F - 67.3 °F 84% 30.03 in 10.0 mi SW 12.7 mph 17.3 mph N/A   Clear
8:15 AM 72.5 °F - 67.5 °F 84% 30.03 in 10.0 mi SW 11.5 mph 18.4 mph N/A   Clear
8:35 AM 72.7 °F - 67.6 °F 84% 30.03 in 10.0 mi SW 12.7 mph 20.7 mph N/A   Clear
8:55 AM 74.5 °F - 68.4 °F 81% 30.03 in 10.0 mi SW 15.0 mph 21.9 mph N/A   Clear
9:15 AM 75.6 °F - 68.7 °F 79% 30.03 in 10.0 mi SSW 13.8 mph 23.0 mph N/A   Clear
9:35 AM 76.5 °F - 68.5 °F 76% 30.03 in 10.0 mi SW 13.8 mph - N/A   Clear
9:55 AM 78.3 °F - 68.7 °F 72% 30.02 in 10.0 mi SSW 13.8 mph 21.9 mph N/A   Clear
10:15 AM 77.2 °F - 68.4 °F 74% 30.01 in 10.0 mi SW 18.4 mph 26.5 mph N/A   Clear
10:35 AM 78.3 °F - 69.1 °F 73% 30.01 in 10.0 mi SW 15.0 mph 23.0 mph N/A   Clear
10:55 AM 79.2 °F - 69.4 °F 72% 30.01 in 10.0 mi SW 16.1 mph 25.3 mph N/A   Clear
11:15 AM 80.1 °F 83.0 °F 69.4 °F 70% 30.00 in 10.0 mi SW 19.6 mph 25.3 mph N/A   Clear
11:35 AM 80.4 °F 83.6 °F 69.8 °F 70% 30.02 in 10.0 mi WSW 21.9 mph 26.5 mph N/A   Clear
11:55 AM 79.5 °F - 70.3 °F 73% 30.02 in 10.0 mi WSW 17.3 mph 26.5 mph N/A   Scattered Clouds
12:15 PM 80.8 °F 84.1 °F 69.6 °F 69% 30.03 in 10.0 mi WSW 17.3 mph 26.5 mph N/A   Scattered Clouds
12:35 PM 81.0 °F 84.4 °F 70.0 °F 69% 30.03 in 10.0 mi SW 13.8 mph 23.0 mph N/A   Mostly Cloudy
12:55 PM 81.7 °F 85.2 °F 69.6 °F 67% 30.02 in 10.0 mi SW 21.9 mph 26.5 mph N/A   Scattered Clouds
1:15 PM 81.9 °F 85.0 °F 68.5 °F 64% 30.01 in 10.0 mi WSW 19.6 mph 26.5 mph N/A   Scattered Clouds
1:35 PM 81.3 °F 83.8 °F 67.3 °F 62% 30.00 in 10.0 mi WSW 19.6 mph 27.6 mph N/A   Mostly Cloudy
1:55 PM 79.9 °F - 67.1 °F 65% 30.01 in 10.0 mi SW 20.7 mph 26.5 mph N/A   Mostly Cloudy
2:15 PM 78.6 °F - 68.7 °F 72% 30.02 in 10.0 mi West 12.7 mph 20.7 mph N/A   Mostly Cloudy
2:35 PM 71.6 °F - 69.3 °F 92% 30.03 in 10.0 mi NW 9.2 mph - N/A   Mostly Cloudy
2:55 PM 73.9 °F - 70.7 °F 90% 30.03 in 10.0 mi NW 10.4 mph - N/A   Scattered Clouds
3:15 PM 68.0 °F - 65.5 °F 92% 30.04 in 0.8 mi West 4.6 mph 25.3 mph 0.26 in Rain , Thunderstorm Heavy Thunderstorms and Rain
3:35 PM 71.4 °F - 70.5 °F 97% 30.03 in 10.0 mi SW 6.9 mph - 0.27 in   Mostly Cloudy
3:55 PM 75.7 °F - 72.7 °F 90% 30.03 in 10.0 mi Calm Calm - 0.27 in   Clear
4:15 PM 75.9 °F - 72.1 °F 88% 30.03 in 10.0 mi Calm Calm - N/A   Scattered Clouds
4:35 PM 77.0 °F - 72.3 °F 85% 30.03 in 10.0 mi SW 3.5 mph - N/A   Scattered Clouds
4:55 PM 79.9 °F - 68.0 °F 67% 30.03 in 10.0 mi WSW 8.1 mph 18.4 mph N/A   Scattered Clouds
5:15 PM 81.0 °F 84.1 °F 68.9 °F 67% 30.02 in 10.0 mi WSW 11.5 mph 16.1 mph N/A   Scattered Clouds
5:35 PM 80.4 °F 83.4 °F 69.1 °F 68% 30.02 in 10.0 mi SW 11.5 mph - N/A   Scattered Clouds
5:55 PM 80.2 °F 82.8 °F 68.0 °F 66% 30.02 in 10.0 mi WSW 13.8 mph - N/A   Mostly Cloudy
6:15 PM 80.4 °F 83.2 °F 68.4 °F 67% 30.03 in 10.0 mi WSW 11.5 mph 19.6 mph N/A   Mostly Cloudy
6:35 PM 81.5 °F 83.9 °F 66.9 °F 61% 30.03 in 10.0 mi WSW 12.7 mph 16.1 mph N/A   Scattered Clouds
6:55 PM 80.8 °F 82.6 °F 65.5 °F 59% 30.03 in 10.0 mi West 10.4 mph 19.6 mph N/A   Scattered Clouds
7:15 PM 80.2 °F 82.1 °F 65.3 °F 60% 30.03 in 10.0 mi WSW 13.8 mph - N/A   Scattered Clouds
7:35 PM 80.2 °F 82.1 °F 65.3 °F 60% 30.03 in 10.0 mi WSW 10.4 mph 16.1 mph N/A   Scattered Clouds
7:55 PM 79.7 °F - 66.0 °F 63% 30.03 in 10.0 mi WSW 6.9 mph - N/A   Clear
8:15 PM 79.0 °F - 64.8 °F 62% 30.03 in 10.0 mi WSW 9.2 mph - N/A   Clear
8:35 PM 77.0 °F - 66.7 °F 70% 30.03 in 10.0 mi SW 5.8 mph - N/A   Clear
8:55 PM 75.4 °F - 67.6 °F 77% 30.03 in 10.0 mi SW 5.8 mph - N/A   Clear
9:15 PM 73.6 °F - 67.3 °F 81% 30.02 in 10.0 mi SSW 5.8 mph - N/A   Clear
9:35 PM 72.9 °F - 67.1 °F 82% 30.02 in 10.0 mi SW 5.8 mph - N/A   Clear
9:55 PM 72.0 °F - 67.1 °F 85% 30.02 in 10.0 mi SW 5.8 mph - N/A   Clear
10:15 PM 71.8 °F - 66.6 °F 84% 30.03 in 10.0 mi SW 6.9 mph - N/A   Clear
10:35 PM 70.7 °F - 66.6 °F 87% 30.03 in 10.0 mi SW 5.8 mph - N/A   Clear
10:55 PM 70.2 °F - 66.2 °F 87% 30.03 in 10.0 mi SSW 5.8 mph - N/A   Clear
11:15 PM 70.0 °F - 65.8 °F 87% 30.03 in 10.0 mi SW 4.6 mph - N/A   Clear
11:35 PM 69.8 °F - 66.2 °F 88% 30.03 in 10.0 mi SW 5.8 mph - N/A   Clear
11:55 PM 69.4 °F - 66.2 °F 89% 30.04 in 10.0 mi SW 5.8 mph - N/A   Clear